H1 CPF 2 NER 2020 12 5 9 340 01 glonass132 H2 1401201 9132 39620 2020 12 5 0 0 0 2020 12 8 23 45 0 900 1 1 0 0 0 1 H9 10 0 59188 0.00000 0 -16649670.247 8991395.220 -17110334.848 10 0 59188 900.00000 0 -15230231.628 7250633.758 -19132809.216 10 0 59188 1800.00000 0 -13828312.239 5214612.518 -20783626.785 10 0 59188 2700.00000 0 -12501412.279 2920208.792 -22030535.310 10 0 59188 3600.00000 0 -11300344.960 415373.928 -22849108.200 10 0 59188 4500.00000 0 -10267123.392 -2242605.979 -23223233.746 10 0 59188 5400.00000 0 -9433233.499 -4989246.648 -23145443.571 10 0 59188 6300.00000 0 -8818366.458 -7755312.188 -22617072.867 10 0 59188 7200.00000 0 -8429664.839 -10469470.637 -21648248.206 10 0 59188 8100.00000 0 -8261514.959 -13061048.398 -20257702.091 10 0 59188 9000.00000 0 -8295894.851 -15462768.750 -18472416.827 10 0 59188 9900.00000 0 -8503263.574 -17613359.673 -16327103.847 10 0 59188 10800.00000 0 -8843954.343 -19459921.473 -13863528.087 10 0 59188 11700.00000 0 -9270012.179 -20959954.396 -11129690.346 10 0 59188 12600.00000 0 -9727397.559 -22082960.618 -8178883.868 10 0 59188 13500.00000 0 -10158461.486 -22811553.067 -5068644.160 10 0 59188 14400.00000 0 -10504585.587 -23142024.561 -1859613.576 10 0 59188 15300.00000 0 -10708873.618 -23084353.840 1385655.756 10 0 59188 16200.00000 0 -10718778.520 -22661649.391 4603935.747 10 0 59188 17100.00000 0 -10488552.104 -21909056.035 7732567.302 10 0 59188 18000.00000 0 -9981412.290 -20872172.290 10710690.544 10 0 59188 18900.00000 0 -9171335.307 -19605047.285 13480435.221 10 0 59188 19800.00000 0 -8044396.611 -18167843.625 15988047.406 10 0 59188 20700.00000 0 -6599603.939 -16624266.356 18184930.208 10 0 59188 21600.00000 0 -4849187.689 -15038867.415 20028578.670 10 0 59188 22500.00000 0 -2818336.905 -13474339.440 21483391.531 10 0 59188 23400.00000 0 -544392.493 -11988912.475 22521345.296 10 0 59188 24300.00000 0 1924468.157 -10633961.891 23122519.177 10 0 59188 25200.00000 0 4531000.104 -9451926.317 23275462.442 10 0 59188 26100.00000 0 7211039.811 -8474620.843 22977398.713 10 0 59188 27000.00000 0 9895945.339 -7722013.927 22234264.786 10 0 59188 27900.00000 0 12515227.514 -7201516.878 21060584.390 10 0 59188 28800.00000 0 14999264.138 -6907813.669 19479180.096 10 0 59188 29700.00000 0 17281986.300 -6823236.421 17520729.274 10 0 59188 30600.00000 0 19303427.169 -6918669.606 15223172.511 10 0 59188 31500.00000 0 21012029.058 -7154944.340 12630985.477 10 0 59188 32400.00000 0 22366614.659 -7484664.064 9794327.430 10 0 59188 33300.00000 0 23337941.725 -7854385.144 6768081.788 10 0 59188 34200.00000 0 23909777.428 -8207061.273 3610806.230 10 0 59188 35100.00000 0 24079448.201 -8484649.480 383611.482 10 0 59188 36000.00000 0 23857842.225 -8630768.664 -2851010.587 10 0 59188 36900.00000 0 23268864.231 -8593299.074 -6030387.688 10 0 59188 37800.00000 0 22348364.867 -8326813.309 -9092874.134 10 0 59188 38700.00000 0 21142588.653 -7794735.956 -11979041.324 10 0 59188 39600.00000 0 19706204.658 -6971140.071 -14632828.756 10 0 59188 40500.00000 0 18100001.488 -5842103.381 -17002633.456 10 0 59188 41400.00000 0 16388342.347 -4406565.221 -19042316.546 10 0 59188 42300.00000 0 14636486.220 -2676645.903 -20712107.091 10 0 59188 43200.00000 0 12907887.018 -677412.496 -21979385.305 10 0 59188 44100.00000 0 11261583.712 1553901.950 -22819329.266 10 0 59188 45000.00000 0 9749791.012 3969195.615 -23215411.798 10 0 59188 45900.00000 0 8415791.916 6511259.774 -23159737.001 10 0 59188 46800.00000 0 7292221.039 9115933.751 -22653208.848 10 0 59188 47700.00000 0 6399811.434 11714564.412 -21705527.480 10 0 59188 48600.00000 0 5746658.093 14236668.465 -20335012.194 10 0 59188 49500.00000 0 5328029.609 16612686.797 -18568253.531 10 0 59188 50400.00000 0 5126736.195 18776715.475 -16439600.419 10 0 59188 51300.00000 0 5114038.449 20669098.708 -13990491.809 10 0 59188 52200.00000 0 5251058.058 22238774.388 -11268645.557 10 0 59188 53100.00000 0 5490629.925 23445272.962 -8327120.665 10 0 59188 54000.00000 0 5779516.060 24260285.100 -5223271.768 10 0 59188 54900.00000 0 6060885.845 24668731.844 -2017617.285 10 0 59188 55800.00000 0 6276955.700 24669292.298 1227355.264 10 0 59188 56700.00000 0 6371674.377 24274367.251 4448421.886 10 0 59188 57600.00000 0 6293338.164 23509481.368 7582867.138 10 0 59188 58500.00000 0 5997023.684 22412150.691 10569715.632 10 0 59188 59400.00000 0 5446734.065 21030264.986 13350924.929 10 0 59188 60300.00000 0 4617166.974 19420054.934 15872515.816 10 0 59188 61200.00000 0 3495029.571 17643731.463 18085617.645 10 0 59188 62100.00000 0 2079845.114 15766897.820 19947408.752 10 0 59188 63000.00000 0 384217.582 13855843.829 21421934.517 10 0 59188 63900.00000 0 -1566456.146 11974836.007 22480788.387 10 0 59188 64800.00000 0 -3734814.061 10183516.446 23103644.269 10 0 59188 65700.00000 0 -6072861.823 8534518.024 23278631.675 10 0 59188 66600.00000 0 -8523754.906 7071393.892 23002548.046 10 0 59188 67500.00000 0 -11023956.265 5826945.484 22280905.673 10 0 59188 68400.00000 0 -13505680.563 4822016.505 21127813.478 10 0 59188 69300.00000 0 -15899524.439 4064800.905 19565696.768 10 0 59188 70200.00000 0 -18137175.040 3550691.634 17624860.687 10 0 59188 71100.00000 0 -20154085.936 3262674.686 15342905.700 10 0 59188 72000.00000 0 -21892010.784 3172250.745 12764005.912 10 0 59188 72900.00000 0 -23301290.996 3240845.021 9938063.351 10 0 59188 73800.00000 0 -24342803.489 3421645.892 6919753.485 10 0 59188 74700.00000 0 -24989488.279 3661795.287 3767479.376 10 0 59188 75600.00000 0 -25227392.790 3904839.137 542253.509 10 0 59188 76500.00000 0 -25056189.392 4093335.246 -2693472.138 10 0 59188 77400.00000 0 -24489144.186 4171509.242 -5877005.929 10 0 59188 78300.00000 0 -23552537.708 4087846.882 -8946623.863 10 0 59188 79200.00000 0 -22284560.849 3797513.329 -11842761.416 10 0 59188 80100.00000 0 -20733731.069 3264496.851 -14509167.048 10 0 59188 81000.00000 0 -18956894.101 2463385.554 -16893995.159 10 0 59188 81900.00000 0 -17016893.640 1380700.722 -18950817.186 10 0 59188 82800.00000 0 -14980005.625 15728.660 -20639530.922 10 0 59188 83700.00000 0 -12913243.770 -1619186.313 -21927150.007 10 0 59188 84600.00000 0 -10881648.542 -3498902.706 -22788457.672 10 0 59188 85500.00000 0 -8945672.896 -5586288.184 -23206511.248 10 0 59189 0.00000 0 -7158774.159 -7833540.186 -23172986.805 10 0 59189 900.00000 0 -5565313.328 -10183968.108 -22688356.087 10 0 59189 1800.00000 0 -4198849.520 -12574163.572 -21761891.435 10 0 59189 2700.00000 0 -3080902.920 -14936470.211 -20411497.178 10 0 59189 3600.00000 0 -2220236.766 -17201649.734 -18663370.061 10 0 59189 4500.00000 0 -1612690.103 -19301632.932 -16551494.258 10 0 59189 5400.00000 0 -1241567.605 -21172240.034 -14116980.331 10 0 59189 6300.00000 0 -1078569.693 -22755755.588 -11407260.729 10 0 59189 7200.00000 0 -1085222.852 -24003248.794 -8475157.740 10 0 59189 8100.00000 0 -1214748.308 -24876540.857 -5377842.713 10 0 59189 9000.00000 0 -1414288.360 -25349735.868 -2175707.792 10 0 59189 9900.00000 0 -1627394.121 -25410250.347 1068826.332 10 0 59189 10800.00000 0 -1796667.186 -25059298.178 4292541.898 10 0 59189 11700.00000 0 -1866441.227 -24311811.122 7432669.157 10 0 59189 12600.00000 0 -1785388.095 -23195799.353 10428119.188 10 0 59189 13500.00000 0 -1508936.570 -21751180.440 13220679.268 10 0 59189 14400.00000 0 -1001400.438 -20028127.727 15756146.717 10 0 59189 15300.00000 0 -237725.452 -18085009.279 17985378.829 10 0 59189 16200.00000 0 795218.547 -15986005.396 19865238.757 10 0 59189 17100.00000 0 2097854.495 -13798505.571 21359419.845 10 0 59189 18000.00000 0 3657656.246 -11590394.422 22439133.545 10 0 59189 18900.00000 0 5449457.544 -9427339.813 23083649.224 10 0 59189 19800.00000 0 7436298.398 -7370195.429 23280677.105 10 0 59189 20700.00000 0 9570773.163 -5472624.733 23026588.602 10 0 59189 21600.00000 0 11796824.194 -3779043.217 22326471.344 10 0 59189 22500.00000 0 14051906.825 -2322962.351 21194019.005 10 0 59189 23400.00000 0 16269436.379 -1125801.802 19651258.900 10 0 59189 24300.00000 0 18381416.596 -196217.028 17728122.962 10 0 59189 25200.00000 0 20321141.617 470031.819 15461870.269 10 0 59189 26100.00000 0 22025860.513 889665.893 12896371.828 10 0 59189 27000.00000 0 23439294.961 1090947.084 10081270.622 10 0 59189 27900.00000 0 24513906.430 1112251.014 7071032.078 10 0 59189 28800.00000 0 25212819.261 1000213.647 3923902.264 10 0 59189 29700.00000 0 25511319.952 807529.275 700792.807 10 0 59189 30600.00000 0 25397870.133 590492.111 -2535887.002 10 0 59189 31500.00000 0 24874590.524 406384.568 -5723429.085 10 0 59189 32400.00000 0 23957194.905 310821.907 -8800034.024 10 0 59189 33300.00000 0 22674375.760 355165.100 -11706004.183 10 0 59189 34200.00000 0 21066666.030 584111.211 -14384899.620 10 0 59189 35100.00000 0 19184823.150 1033563.584 -16784634.512 10 0 59189 36000.00000 0 17087801.552 1728872.765 -18858492.768 10 0 59189 36900.00000 0 14840397.146 2683523.873 -20566042.796 10 0 59189 37800.00000 0 12510661.137 3898327.703 -21873933.283 10 0 59189 38700.00000 0 10167190.377 5361151.990 -22756553.963 10 0 59189 39600.00000 0 7876407.007 7047206.590 -23196547.731 10 0 59189 40500.00000 0 5699940.763 8919873.167 -23185163.323 10 0 59189 41400.00000 0 3692223.348 10932047.015 -22722440.666 10 0 59189 42300.00000 0 1898395.741 13027936.685 -21817224.198 10 0 59189 43200.00000 0 352616.295 15145247.622 -20487002.824 10 0 59189 44100.00000 0 -923159.213 17217659.261 -18757578.557 10 0 59189 45000.00000 0 -1919874.151 19177492.052 -16662569.455 10 0 59189 45900.00000 0 -2641515.073 20958452.367 -14242755.920 10 0 59189 46800.00000 0 -3104697.569 22498339.363 -11545282.839 10 0 59189 47700.00000 0 -3337712.168 23741599.032 -8622733.316 10 0 59189 48600.00000 0 -3379071.848 24641616.881 -5532092.657 10 0 59189 49500.00000 0 -3275624.182 25162651.663 -2333623.786 10 0 59189 50400.00000 0 -3080309.957 25281327.890 910322.524 10 0 59189 51300.00000 0 -2849665.373 24987623.792 4136537.878 10 0 59189 52200.00000 0 -2641175.796 24285313.233 7282201.336 10 0 59189 53100.00000 0 -2510595.199 23191843.523 10286113.462 10 0 59189 54000.00000 0 -2509346.537 21737655.385 13089894.105 10 0 59189 54900.00000 0 -2682114.315 19964975.026 15639119.786 10 0 59189 55800.00000 0 -3064731.850 17926130.644 17884378.171 10 0 59189 56700.00000 0 -3682452.635 15681465.417 19782219.429 10 0 59189 57600.00000 0 -4548678.424 13296935.549 21295986.775 10 0 59189 58500.00000 0 -5664196.939 10841494.523 22396511.280 10 0 59189 59400.00000 0 -7016960.470 8384372.863 23062659.043 10 0 59189 60300.00000 0 -8582413.923 5992366.168 23281721.878 10 0 59189 61200.00000 0 -10324357.947 3727243.224 23049645.607 10 0 59189 62100.00000 0 -12196310.837 1643380.168 22371093.133 10 0 59189 63000.00000 0 -14143312.472 -214283.096 21259342.271 10 0 59189 63900.00000 0 -16104095.579 -1811881.652 19736021.174 10 0 59189 64800.00000 0 -18013534.709 -3127793.807 17830686.832 10 0 59189 65700.00000 0 -19805272.133 -4153292.532 15580254.681 10 0 59189 66600.00000 0 -21414412.504 -4892654.865 13028289.923 10 0 59189 67500.00000 0 -22780175.340 -5362726.358 10224173.419 10 0 59189 68400.00000 0 -23848395.952 -5591959.831 7222157.218 10 0 59189 69300.00000 0 -24573771.317 -5618969.268 4080326.917 10 0 59189 70200.00000 0 -24921757.688 -5490659.701 859489.759 10 0 59189 71100.00000 0 -24870040.755 -5260011.470 -2377991.137 10 0 59189 72000.00000 0 -24409516.508 -4983611.694 -5569394.645 10 0 59189 72900.00000 0 -23544740.977 -4719036.532 -8652849.177 10 0 59189 73800.00000 0 -22293828.854 -4522194.240 -11568527.058 10 0 59189 74700.00000 0 -20687803.757 -4444741.006 -14259802.775 10 0 59189 75600.00000 0 -18769425.710 -4531678.838 -16674352.829 10 0 59189 76500.00000 0 -16591543.087 -4819237.525 -18765175.774 10 0 59189 77400.00000 0 -14215036.355 -5333131.100 -20491512.348 10 0 59189 78300.00000 0 -11706437.990 -6087263.862 -21819647.466 10 0 59189 79200.00000 0 -9135326.716 -7082942.406 -22723577.944 10 0 59189 80100.00000 0 -6571603.952 -8308629.035 -23185532.197 10 0 59189 81000.00000 0 -4082765.550 -9740249.244 -23196330.989 10 0 59189 81900.00000 0 -1731282.352 -11342042.696 -22755581.183 10 0 59189 82800.00000 0 427800.946 -13067923.979 -21871697.635 10 0 59189 83700.00000 0 2348948.165 -14863297.719 -20561751.698 10 0 59189 84600.00000 0 3997807.902 -16667253.040 -18851148.218 10 0 59189 85500.00000 0 5352413.173 -18415045.755 -16773136.455 10 0 59190 0.00000 0 6403854.163 -20040764.035 -14368163.868 10 0 59190 900.00000 0 7156395.934 -21480064.805 -11683084.736 10 0 59190 1800.00000 0 7627037.209 -22672865.190 -8770240.076 10 0 59190 2700.00000 0 7844529.056 -23565873.444 -5686426.227 10 0 59190 3600.00000 0 7847897.501 -24114852.729 -2491774.067 10 0 59190 4500.00000 0 7684533.582 -24286520.052 751438.239 10 0 59190 5400.00000 0 7407934.236 -24059999.990 3980014.173 10 0 59190 6300.00000 0 7075191.801 -23427771.313 7131083.905 10 0 59190 7200.00000 0 6744340.654 -22396066.752 10143339.572 10 0 59190 8100.00000 0 6471675.250 -20984709.683 12958235.446 10 0 59190 9000.00000 0 6309154.556 -19226395.560 15521128.858 10 0 59190 9900.00000 0 6302003.581 -17165449.618 17782339.194 10 0 59190 10800.00000 0 6486613.675 -14856114.213 19698104.697 10 0 59190 11700.00000 0 6888830.014 -12360438.670 21231419.238 10 0 59190 12600.00000 0 7522697.745 -9745860.687 22352733.980 10 0 59190 13500.00000 0 8389718.633 -7082580.451 23040511.933 10 0 59190 14400.00000 0 9478648.399 -4440836.535 23281626.381 10 0 59190 15300.00000 0 10765842.314 -1888195.995 23071597.151 10 0 59190 16200.00000 0 12216133.892 513030.253 22414661.764 10 0 59190 17100.00000 0 13784209.661 2708141.469 21323681.290 10 0 59190 18000.00000 0 15416422.636 4652075.028 19819883.624 10 0 59190 18900.00000 0 17052969.338 6311026.491 17932449.520 10 0 59190 19800.00000 0 18630340.382 7663596.899 15697949.299 10 0 59190 20700.00000 0 20083943.418 8701421.625 13159640.698 10 0 59190 21600.00000 0 21350790.187 9429256.431 10366640.611 10 0 59190 22500.00000 0 22372136.607 9864518.489 7372985.671 10 0 59190 23400.00000 0 23095966.484 10036302.404 4236598.792 10 0 59190 24300.00000 0 23479215.642 9983912.873 1018180.451 10 0 59190 25200.00000 0 23489643.593 9754975.589 -2219954.905 10 0 59190 26100.00000 0 23107274.126 9403205.478 -5415075.645 10 0 59190 27000.00000 0 22325343.749 8985925.776 -8505240.543 10 0 59190 27900.00000 0 21150717.037 8561442.023 -11430494.311 10 0 59190 28800.00000 0 19603749.974 8186381.327 -14134028.142 10 0 59190 29700.00000 0 17717605.143 7913109.056 -16563282.934 10 0 59190 30600.00000 0 15537045.434 7787332.191 -18670973.747 10 0 59190 31500.00000 0 13116754.749 7845991.063 -20416015.291 10 0 59190 32400.00000 0 10519253.983 8115529.459 -21764330.151 10 0 59190 33300.00000 0 7812497.588 8610617.465 -22689523.460 10 0 59190 34200.00000 0 5067249.762 9333382.630 -23173410.173 10 0 59190 35100.00000 0 2354348.670 10273183.810 -23206383.837 10 0 59190 36000.00000 0 -258027.811 11406939.279 -22787618.694 10 0 59190 36900.00000 0 -2706980.950 12699997.245 -21925100.072 10 0 59190 37800.00000 0 -4937285.319 14107513.857 -20635481.401 10 0 59190 38700.00000 0 -6903458.064 15576282.040 -18943769.535 10 0 59190 39600.00000 0 -8571416.382 17046934.950 -16882843.658 10 0 59190 40500.00000 0 -9919653.671 18456431.480 -14492816.480 10 0 59190 41400.00000 0 -10939885.082 19740718.797 -11820249.843 10 0 59190 42300.00000 0 -11637135.656 20837458.761 -8917240.213 10 0 59190 43200.00000 0 -12029268.259 21688702.048 -5840392.403 10 0 59190 44100.00000 0 -12145972.463 22243395.697 -2649702.522 10 0 59190 45000.00000 0 -12027258.806 22459616.831 592626.684 10 0 59190 45900.00000 0 -11721524.136 22306437.036 3823413.420 10 0 59190 46800.00000 0 -11283272.159 21765337.878 6979741.815 10 0 59190 47700.00000 0 -10770587.926 20831117.453 10000198.358 10 0 59190 48600.00000 0 -10242475.219 19512249.932 12826074.456 10 0 59190 49500.00000 0 -9756171.220 17830683.498 15402510.821 10 0 59190 50400.00000 0 -9364553.162 15821086.139 17679560.997 10 0 59190 51300.00000 0 -9113747.089 13529572.045 19613153.555 10 0 59190 52200.00000 0 -9041039.572 11011962.935 21165935.055 10 0 59190 53100.00000 0 -9173179.763 8331657.930 22307978.535 10 0 59190 54000.00000 0 -9525142.222 5557201.186 23017345.401 10 0 59190 54900.00000 0 -10099401.265 2759648.472 23280491.540 10 0 59190 55800.00000 0 -10885745.958 9841.581 23092511.519 10 0 59190 56700.00000 0 -11861642.427 -2624297.525 22457217.747 10 0 59190 57600.00000 0 -12993127.473 -5080342.337 21387054.321 10 0 59190 58500.00000 0 -14236195.721 -7303702.363 19902848.110 10 0 59190 59400.00000 0 -15538622.346 -9249633.900 18033402.330 10 0 59190 60300.00000 0 -16842145.676 -10884839.924 15814940.356 10 0 59190 61200.00000 0 -18084919.232 -12188594.718 13290410.153 10 0 59190 62100.00000 0 -19204131.680 -13153348.432 10508661.931 10 0 59190 63000.00000 0 -20138686.218 -13784787.875 7523513.870 10 0 59190 63900.00000 0 -20831828.152 -14101352.032 4392722.920 10 0 59190 64800.00000 0 -21233611.379 -14133223.191 1176879.375 10 0 59190 65700.00000 0 -21303100.731 -13920836.123 -2061754.479 10 0 59190 66600.00000 0 -21010217.736 -13512967.693 -5260440.007 10 0 59190 67500.00000 0 -20337151.781 -12964486.806 -8357169.797 10 0 59190 68400.00000 0 -19279276.391 -12333858.857 -11291864.307 10 0 59190 69300.00000 0 -17845530.645 -11680509.286 -14007534.637 10 0 59190 70200.00000 0 -16058247.864 -11062157.007 -16451389.047 10 0 59190 71100.00000 0 -13952436.559 -10532230.029 -18575861.744 10 0 59190 72000.00000 0 -11574541.504 -10137472.450 -20339543.626 10 0 59190 72900.00000 0 -8980734.522 -9915844.300 -21707996.631 10 0 59190 73800.00000 0 -6234804.239 -9894803.716 -22654435.294 10 0 59190 74700.00000 0 -3405731.227 -10090045.121 -23160261.534 10 0 59190 75600.00000 0 -565048.192 -10504748.127 -23215441.454 10 0 59190 76500.00000 0 2215905.718 -11129370.485 -22818715.824 10 0 59190 77400.00000 0 4868722.485 -11941995.503 -21977639.040 10 0 59190 78300.00000 0 7330540.723 -12909220.861 -20708444.717 10 0 59190 79200.00000 0 9546429.814 -13987552.633 -19035739.430 10 0 59190 80100.00000 0 11471442.728 -15125246.601 -16992029.660 10 0 59190 81000.00000 0 13072251.332 -16264519.525 -14617090.513 10 0 59190 81900.00000 0 14328295.507 -17344036.876 -11957188.149 10 0 59190 82800.00000 0 15232397.881 -18301571.223 -9064171.226 10 0 59190 83700.00000 0 15790818.859 -19076717.842 -5994449.613 10 0 59190 84600.00000 0 16022750.610 -19613551.305 -2807881.194 10 0 59190 85500.00000 0 15959272.764 -19863109.218 433410.089 10 0 59191 0.00000 0 15641815.798 -19785596.705 3666260.333 10 0 59191 900.00000 0 15120199.243 -19352216.875 6827710.735 10 0 59191 1800.00000 0 14450329.774 -18546550.441 9856244.750 10 0 59191 2700.00000 0 13691659.071 -17365423.851 12692993.182 10 0 59191 3600.00000 0 12904510.412 -15819231.748 15282881.989 10 0 59191 4500.00000 0 12147388.701 -13931699.255 17575700.287 10 0 59191 5400.00000 0 11474388.195 -11739095.581 19527067.971 10 0 59191 6300.00000 0 10932807.449 -9288932.542 21099284.873 10 0 59191 7200.00000 0 10561071.468 -6638203.362 22262046.098 10 0 59191 8100.00000 0 10387047.455 -3851235.686 22993011.275 10 0 59191 9000.00000 0 10426823.534 -997248.274 23278218.395 10 0 59191 9900.00000 0 10684000.101 1852287.377 23112335.962 10 0 59191 10800.00000 0 11149521.989 4626372.006 22498750.204 10 0 59191 11700.00000 0 11802057.122 7257178.587 21449486.941 10 0 59191 12600.00000 0 12608904.861 9682617.233 19984970.513 10 0 59191 13500.00000 0 13527395.527 11848660.836 18133624.909 10 0 59191 14400.00000 0 14506722.494 13711337.239 15931324.717 10 0 59191 15300.00000 0 15490130.583 15238307.297 13420706.136 10 0 59191 16200.00000 0 16417369.855 16409965.235 10650350.557 10 0 59191 17100.00000 0 17227312.901 17220017.072 7673855.439 10 0 59191 18000.00000 0 17860626.870 17675514.093 4548809.385 10 0 59191 18900.00000 0 18262388.914 17796340.740 1335690.036 10 0 59191 19800.00000 0 18384535.802 17614178.617 -1903294.990 10 0 59191 20700.00000 0 18188044.904 17170989.887 -5105402.541 10 0 59191 21600.00000 0 17644754.587 16517083.377 -8208561.412 10 0 59191 22500.00000 0 16738746.613 15708844.085 -11152570.049 10 0 59191 23400.00000 0 15467231.105 14806220.943 -13880261.498 10 0 59191 24300.00000 0 13840895.078 13870078.071 -16338613.207 10 0 59191 25200.00000 0 11883697.696 12959520.621 -18479780.113 10 0 59191 26100.00000 0 9632118.443 12129307.741 -20262030.683 10 0 59191 27000.00000 0 7133887.199 11427461.794 -21650567.389 10 0 59191 27900.00000 0 4446246.847 10893175.011 -22618215.162 10 0 59191 28800.00000 0 1633818.897 10555102.593 -23145963.684 10 0 59191 29700.00000 0 -1233840.671 10430115.228 -23223352.169 10 0 59191 30600.00000 0 -4084894.820 10522564.836 -22848688.169 10 0 59191 31500.00000 0 -6847978.301 10824095.838 -22029095.032 10 0 59191 32400.00000 0 -9454935.640 11314011.178 -20780386.025 10 0 59191 33300.00000 0 -11843430.053 11960178.788 -19126766.445 10 0 59191 34200.00000 0 -13959314.027 12720441.024 -17100368.638 10 0 59191 35100.00000 0 -15758662.055 13544467.916 -14740628.284 10 0 59191 36000.00000 0 -17209380.053 14375975.830 -12093513.716 10 0 59191 36900.00000 0 -18292323.645 15155217.060 -9210623.422 10 0 59191 37800.00000 0 -19001878.517 15821634.000 -6148169.815 10 0 59191 38700.00000 0 -19345978.984 16316564.079 -2965869.983 10 0 59191 39600.00000 0 -19345564.972 16585879.381 274233.542 10 0 59191 40500.00000 0 -19033501.927 16582447.546 3508997.466 10 0 59191 41400.00000 0 -18453011.142 16268308.378 6675422.368 10 0 59191 42300.00000 0 -17655678.988 15616473.011 9711891.294 10 0 59191 43200.00000 0 -16699131.386 14612268.920 12559376.922 10 0 59191 44100.00000 0 -15644473.786 13254173.817 15162592.837 10 0 59191 45000.00000 0 -14553606.383 11554103.579 17471065.999 10 0 59191 45900.00000 0 -13486528.940 9537142.617 19440109.735 10 0 59191 46800.00000 0 -12498749.194 7240728.727 21031679.052 10 0 59191 47700.00000 0 -11638903.677 4713327.294 22215092.789 10 0 59191 48600.00000 0 -10946690.053 2012650.756 22967610.175 10 0 59191 49500.00000 0 -10451196.356 -796502.317 23274852.356 10 0 59191 50400.00000 0 -10169695.439 -3644698.803 23131062.468 10 0 59191 51300.00000 0 -10106953.286 -6460512.204 22539200.872 10 0 59191 52200.00000 0 -10255078.338 -9173245.105 21510874.994 10 0 59191 53100.00000 0 -10593916.652 -11715621.575 20066106.103 10 0 59191 54000.00000 0 -11091975.240 -14026339.875 18232937.965 10 0 59191 54900.00000 0 -11707834.340 -16052381.712 16046894.945 10 0 59191 55800.00000 0 -12391989.363 -17750984.189 13550299.631 10 0 59191 56700.00000 0 -13089045.653 -19091194.473 10791462.376 10 0 59191 57600.00000 0 -13740174.667 -20054944.087 7823757.393 10 0 59191 58500.00000 0 -14285729.290 -20637599.233 4704602.162 10 0 59191 59400.00000 0 -14667909.262 -20847964.933 1494358.713 10 0 59191 60300.00000 0 -14833365.271 -20707743.182 -1744823.099 10 0 59191 61200.00000 0 -14735632.559 -20250467.637 -4950198.799 10 0 59191 62100.00000 0 -14337291.502 -19519959.161 -8059636.640 10 0 59191 63000.00000 0 -13611763.655 -18568366.381 -11012816.327 10 0 59191 63900.00000 0 -12544666.553 -17453872.834 -13752396.082 10 0 59191 64800.00000 0 -11134668.675 -16238166.356 -16225125.652 10 0 59191 65700.00000 0 -9393806.502 -14983776.483 -18382883.610 10 0 59191 66600.00000 0 -7347248.018 -13751391.401 -20183618.570 10 0 59191 67500.00000 0 -5032509.913 -12597267.157 -21592175.701 10 0 59191 68400.00000 0 -2498158.610 -11570838.171 -22580991.970 10 0 59191 69300.00000 0 197953.007 -10712630.000 -23130645.883 10 0 59191 70200.00000 0 2990841.730 -10052562.820 -23230250.230 10 0 59191 71100.00000 0 5810854.878 -9608717.870 -22877679.215 10 0 59191 72000.00000 0 8586334.381 -9386619.788 -22079624.458 10 0 59191 72900.00000 0 11246373.777 -9379066.052 -20851477.682 10 0 59191 73800.00000 0 13723553.334 -9566511.577 -19217041.252 10 0 59191 74700.00000 0 15956538.848 -9917992.887 -17208071.286 10 0 59191 75600.00000 0 17892435.050 -10392553.114 -14863661.528 10 0 59191 76500.00000 0 19488794.562 -10941107.453 -12229479.580 10 0 59191 77400.00000 0 20715197.602 -11508669.545 -9356870.493 10 0 59191 78300.00000 0 21554335.882 -12036843.484 -6301845.655 10 0 59191 79200.00000 0 22002555.244 -12466474.463 -3123977.574 10 0 59191 80100.00000 0 22069834.750 -12740344.068 114776.494 10 0 59191 81000.00000 0 21779204.238 -12805794.263 3351297.626 10 0 59191 81900.00000 0 21165626.506 -12617167.242 6522549.521 10 0 59191 82800.00000 0 20274393.229 -12137956.463 9566818.070 10 0 59191 83700.00000 0 19159104.436 -11342576.885 12424920.692 10 0 59191 84600.00000 0 17879318.882 -10217679.067 15041360.981 10 0 59191 85500.00000 0 16497976.229 -8762951.635 17365405.599 99